DECAYED

STARLINK-2116, 47724 (Decayed)

Orbit data source: Space-Track

STARLINK-2116, 47724 was a payload satellite owned by SpaceX/Seattle (US) in LEO that was launched on Thu, 04 Mar 2021 UTC via an FALCON 9 launch vehicle from the Air Force Eastern Test Range (AFETR). Payload-class satellites include a variety of spacecraft equipped with specific instruments for various scientific and technological missions. These include communications satellites like Starlink; space stations such as the ISS; scientific satellites like the Hubble; Earth observation satellites from companies like Planet Labs, Umbra, and HawkEye 360; GPS; miniature CubeSats for education and research; and military/defense satellites.

Not visible in the next 10 days
Identifier
47724, 2021-017C
Orbit
Decayed
Country
Flag of USUS
Related business
Manufacturer
SpaceX/Seattle
Mission
Decayed Commercial Communications
Bus & Motor
STARLINK, Unknown motor
Mass
260 kg wet, ~248 kg dry
Launch date (UTC)
2021-03-04 (5 years ago)
Launch vehicle
FALCON 9
Launch site
Air Force Eastern Test Range (AFETR)
Object type
Payload
Rocket body
Debris
Shape & HBR
Box + 1 Pan, 10.1 m
Radar Cross Section
13.562 m², Large (>1 m²)

Expand to show TLE details & history
Last TLE update: 2 months ago

TLE from 2 months ago
0 STARLINK-2116
1 47724U 21017C   26100.76938389  .13937085  12568-4  32997-3 0  9992
2 47724  53.0211 279.0332 0007808 290.6132  69.4079 16.45730231284629
Epoch: 2026-04-10T18:27Z
TLE epoch observation values (Epoch: 2026-04-10T18:27:54.768Z)
Latitude
0.00001°
Longitude
163.05672°
Altitude
149.743 km
Speed
7.819 km/s
True Right ascension
18h 36m 07s
True Declination
0° 00' 00"
Sunlit
Object was in daylight at epoch
Visualization orbit readout
Latitude
Unknown
Longitude
Unknown
Altitude
Unknown
Speed
Unknown
Apparent Right ascension
Unknown
Apparent Declination
Unknown
Sunlit
N/A
Visualization observer readout
Local Sidereal Time
21:37:47
Azimuth
Unknown
Elevation
Unknown
Doppler factor
Unknown
Orbital elements
Apogee altitude
155.994 km
Perigee altitude
145.798 km
Semi-major axis
6,529.033 km
Eccentricity
0.00078
Inclination
53.0211°
RAAN
279.0332°
Arg. of periapsis
290.6132°
True anomaly
69.49169°
Mean anomaly
69.4079°
Eccentric anomaly
69.44979°
Mean motion
4.11405 °/min
Orbital period
87.5 mins
BSTAR
0.00032997
Loading maneuver chart data...
Computing Atmospheric mass density...

Documentation

Showing up to 5 results
|